Location: Rancho Del Sol Observatory
(38.7214°N, 120.6350°W)
Time: 13:26:02
(UTC-08:00)

A-11 Canister half - Pass Details

Date: 01 February 2020
Orbit: 1517 x 1683 km, 47.2° (Epoch: 19 February)

Event Time Altitude Azimuth Distance (km) Brightness Sun altitude
Rises 00:00:13 0° 273° (W) 4,749 - -68.2°
Reaches altitude 10° 00:03:28 10° 278° (W) 3,745 - -68.3°
Maximum altitude 00:12:37 52° 353° (N) 1,846 - -68.5°
Drops below altitude 10° 00:21:35 10° 69° (ENE) 3,678 - -68.5°
Sets 00:24:46 0° 74° (ENE) 4,660 - -68.4°
